User: anonymous   Login
Location: Betra
(48.4113°N, 8.6634°E)
Time: 16:21:26
(UTC+00:00)
Language:

Cosmos 1328 - Orbit

View from above orbital plane
View from above orbital plane
View from above satellite
View from above satellite

Ground track
Ground track

The orbit data is extracted from the following two-line orbital elements,

1 12987U 81117A   24207.13337415  .00008079  00000-0  39032-3 0  9991
2 12987  82.4952 225.8313 0017903 106.9700 253.3498 15.18347643323965
Epoch (UTC): 25 July 2024 03:12:03
Eccentricity: 0.0017903
inclination: 82.4952°
perigee height: 498 km
apogee height: 523 km
right ascension of ascending node: 225.8313°
argument of perigee: 106.9700°
revolutions per day: 15.18347643
mean anomaly at epoch: 253.3498°
orbit number at epoch: 32396

The dashed part of the orbit path shows where the satellite is in the earth's shadow,  

DLR